Flag for Brazil Weather past 2 weeks in Campinas, São Paulo, Brazil

Now
66 °F

Clear.


Feels Like: 66 °F
Forecast: N/A
Wind: 14 mph from Southeast

Location: Campinas Aeroporto

Current Time: Aug 28, 2015 at 8:20:15 PM

Latest Report: Aug 28, 2015 at 7:00 PM


Visibility: 10 mi

Pressure: 30.18 "Hg (27.85 "Hg at 686m altitude)

Humidity: 64%

Dew point: 54 °F

Location of CampinasLocation

Historic Weather in Campinas — Graph

°F

Campinas temperature yesterday

Maximum temperature yesterday: 66 °F (at 12:00 AM)
Minimum temperature yesterday: 59 °F (at 9:00 PM)
Average temperature yesterday: 62 °F

Past Weeks' High & Low Weather Summary

 TemperatureHumidityPressure
High88 °F (Aug 23, 3:00 PM)100% (Aug 23, 7:00 AM)30.30 "Hg (Aug 23, 7:00 AM)
Low46 °F (Aug 16, 5:00 AM)15% (Aug 23, 4:00 PM)29.95 "Hg (Aug 19, 2:00 PM)
Average68 °F62%30.12 "Hg
* Reported Aug 13 6:00 PM — Aug 28 6:00 PM, Campinas, Weather by CustomWeather, © 2015

Note: Actual official high and low records may vary slightly from our data, if they occured in-between our weather recording intervals... More about our weather records

Advertising

Campinas weather history for previous 24 hours

 ConditionsComfort  
Time TempWeatherWind HumidityBarometerVisibility
6:00 PM
Fri, Aug 28
70 °FClear.13 mph57%30.18 "Hg10 mi
5:00 PM72 °FClear.13 mph47%30.15 "Hg10 mi
4:00 PM73 °FSunny.10 mph44%30.15 "Hg10 mi
3:00 PM75 °FSunny.14 mph41%30.18 "Hg10 mi
2:00 PM73 °FSunny.14 mph47%30.18 "Hg10 mi
1:00 PM72 °FSunny.14 mph50%30.21 "Hg10 mi
12:00 PM72 °FSunny.16 mph50%30.24 "Hg10 mi
11:00 AM68 °FSunny.15 mph60%30.24 "Hg10 mi
10:00 AM64 °FSunny.10 mph68%30.24 "Hg10 mi
9:00 AM61 °FSunny.9 mph83%30.24 "Hg10 mi
8:00 AM57 °FFog.7 mph94%30.21 "Hg3 mi
7:00 AM55 °FFog.6 mph100%30.18 "Hg3 mi
6:00 AM55 °FClear.5 mph100%30.15 "Hg5 mi
5:00 AM55 °FClear.3 mph100%30.15 "Hg5 mi
4:00 AM57 °FFog.5 mph94%30.15 "Hg3 mi
3:00 AM57 °FClear.No wind100%30.18 "Hg6 mi
2:00 AM57 °FClear.2 mph100%30.18 "Hg5 mi
1:00 AM59 °FPassing clouds.No wind94%30.18 "HgN/A
12:00 AM59 °FPassing clouds.No wind94%30.21 "HgN/A
11:00 PM
Thu, Aug 27
59 °FClear.3 mph100%30.18 "Hg10 mi
10:00 PM59 °FPassing clouds.3 mph100%30.18 "HgN/A
9:00 PM59 °FPassing clouds.10 mph94%30.18 "HgN/A
8:00 PM61 °FPassing clouds.7 mph94%30.12 "HgN/A
Weather by CustomWeather, © 2015

See weather overviewHow to use our weather pages